This is the latest recevied weather packets stored in our database for station/object OE6JUE. If no packets are shown the sender has not sent any weather packets the latest 10 day(s).
| Time | Temp. | Humidity | Pressure | Rain* | Wind** | Luminosity | Snow |
|---|---|---|---|---|---|---|---|
| 1777558804 | 17.78° C | 21% | 1026.9 hPa | 0 mm | - | - | - |
| 1777558504 | 17.22° C | 22% | 1027.1 hPa | 0 mm | - | - | - |
| 1777558203 | 17.22° C | 22% | 1027 hPa | 0 mm | - | - | - |
| 1777557903 | 16.67° C | 22% | 1026.9 hPa | 0 mm | - | - | - |
| 1777557603 | 17.22° C | 22% | 1027.1 hPa | - | - | - | - |
| 1777557303 | 17.78° C | 21% | 1027.1 hPa | 0 mm | - | - | - |
| 1777557003 | 17.78° C | 21% | 1027.2 hPa | 0 mm | - | - | - |
| 1777556703 | 17.22° C | 22% | 1027 hPa | 0 mm | - | - | - |
| 1777556403 | 17.22° C | 22% | 1027.1 hPa | 0 mm | - | - | - |
| 1777556104 | 16.67° C | 22% | 1027.2 hPa | 0 mm | - | - | - |
| 1777555804 | 16.67° C | 22% | 1027.2 hPa | 0 mm | - | - | - |
| 1777555503 | 16.67° C | 22% | 1027.3 hPa | 0 mm | - | - | - |
| 1777555203 | 16.67° C | 22% | 1027.3 hPa | 0 mm | - | - | - |
| 1777554903 | 16.67° C | 22% | 1027.3 hPa | 0 mm | - | - | - |
| 1777554604 | 16.67° C | 22% | 1027.4 hPa | 0 mm | - | - | - |
| 1777554303 | 16.11° C | 22% | 1027.4 hPa | 0 mm | - | - | - |
| 1777554004 | 16.11° C | 22% | 1027.5 hPa | - | - | - | - |
| 1777553704 | 16.67° C | 22% | 1027.6 hPa | 0 mm | - | - | - |
| 1777553404 | 16.67° C | 22% | 1027.6 hPa | 0 mm | - | - | - |
| 1777553104 | 16.11° C | 22% | 1027.6 hPa | 0 mm | - | - | - |
| 1777552803 | 16.11° C | 22% | 1027.7 hPa | 0 mm | - | - | - |
| 1777552504 | 15.56° C | 22% | 1027.7 hPa | 0 mm | - | - | - |
| 1777552204 | 16.11° C | 22% | 1027.8 hPa | 0 mm | - | - | - |
| 1777551903 | 16.67° C | 22% | 1027.8 hPa | 0 mm | - | - | - |
| 1777551603 | 16.11° C | 22% | 1027.9 hPa | 0 mm | - | - | - |
* Rain latest hour (hover to see other rain measurements)
** Current wind speed in m/s (hover to see current wind gust speed)